Wind_Speed
10 12 12 10 11 8 5 5 3 4 5 5 4 1 1 2 7 6 5 6 4 5 5 9 9 8 9 10 12 13 10 7 4 3 6 12 22 23 23 25 24 23 22 21 20 21 22 23 22 21 21 20 20 19 19 19 18 17 17 17 16 17 16 16 15 16 16 15 15 15 15 14 13 13 12 11 11 12 13 13 13 13 12 12 11 12 12 12 14 14 14 13 12 12 12 12 12
11 12 11 8 9 8 3 4 4 3 5 4 3 2 3 4 6 8 6 4 2 6 9 10 8 9 13 13 14 14 13 12 11 9 12 23 26 21 24 23 22 24 23 22 21 21 22 24 22 21 21 20 19 19 18 18 17 16 16 16 16 16 16 15 15 15 15 14 14 14 14 13 12 12 11 11 11 12 12 12 13 13 12 11 12 13 12 13 14 13 13 14 12 11 12 12 12
11 12 10 7 8 7 3 3 5 3 3 2 2 2 4 5 6 8 7 6 5 11 12 10 9 7 10 11 11 13 11 12 16 15 15 24 22 20 24 22 23 23 23 23 22 22 22 23 22 21 21 20 19 18 18 18 17 17 16 16 16 16 15 14 14 14 14 14 13 13 13 12 12 12 11 11 11 12 12 12 13 12 12 11 12 13 11 12 13 12 12 13 12 11 11 12 11
10 11 8 7 6 5 3 3 5 4 2 1 2 2 5 8 9 8 10 9 9 13 11 10 9 6 9 13 11 12 12 11 17 16 14 20 20 23 25 23 22 21 22 22 22 23 22 23 23 22 21 20 19 18 18 18 17 17 16 16 15 14 14 14 14 14 14 13 13 13 13 12 11 11 11 11 11 12 12 12 12 12 12 12 12 12 11 11 12 12 12 12 12 11 11 12 11
10 8 7 8 4 2 2 3 4 3 2 2 1 4 6 9 11 10 12 12 12 12 10 10 9 6 10 12 8 8 12 12 16 17 16 21 25 25 24 23 22 21 23 22 22 22 23 24 23 21 20 19 19 18 18 17 17 16 15 14 14 13 14 14 14 13 13 13 12 12 12 11 11 11 11 11 11 11 11 11 12 12 11 12 12 12 12 12 12 12 12 11 12 11 11 12 11
10 8 5 4 3 2 2 4 3 3 3 2 1 4 8 9 11 12 13 13 12 12 11 10 10 11 11 12 9 8 11 13 15 17 20 25 27 26 25 23 21 22 23 23 22 21 22 22 21 20 19 19 18 18 17 16 15 14 14 13 13 14 14 14 14 13 13 12 12 12 12 11 11 10 11 11 10 11 11 11 11 12 12 12 12 11 12 12 11 11 11 11 11 12 12 11 11
8 7 4 3 2 3 4 5 4 4 4 4 4 4 9 9 10 12 13 13 13 11 9 9 12 13 10 10 10 11 14 15 16 18 23 27 27 26 25 23 21 22 22 22 21 21 22 21 20 19 18 17 17 16 15 15 14 14 13 12 14 14 14 14 13 13 13 12 11 11 11 11 10 10 10 10 10 10 10 10 11 12 12 12 12 11 12 11 11 11 10 11 11 11 11 11 12
8 5 2 3 4 4 5 5 4 5 4 4 1 5 8 10 10 11 12 11 11 11 11 10 11 12 11 12 10 12 16 17 20 23 27 28 27 25 23 22 22 21 21 20 20 21 21 19 19 18 17 16 16 15 14 14 14 14 13 13 14 15 14 13 13 13 12 11 11 11 11 11 10 10 10 10 10 10 10 11 11 12 11 11 11 11 11 11 11 11 10 10 11 11 12 12 13
7 4 3 3 5 4 5 5 5 4 4 4 4 8 7 9 9 10 11 9 9 12 13 9 10 11 11 14 12 12 15 20 25 27 27 27 26 24 22 21 21 21 21 20 20 20 20 19 18 18 17 16 16 15 14 13 14 15 14 14 15 15 14 13 12 12 12 11 11 11 10 11 11 11 10 10 10 10 11 11 11 11 11 11 11 10 10 11 11 11 11 11 11 12 12 12 13
5 4 3 3 5 4 6 6 4 1 5 5 5 9 7 8 9 8 10 9 8 12 16 11 10 13 13 14 11 11 16 23 27 26 26 27 25 23 23 22 21 22 21 21 20 20 19 19 18 17 17 16 16 15 14 14 14 15 15 16 15 14 14 13 13 12 12 11 11 11 11 12 11 11 10 10 11 11 11 12 11 11 10 11 11 10 10 11 11 11 11 11 12 12 13 13 13
4 3 3 4 3 3 5 3 3 2 7 7 6 9 7 8 9 8 9 8 8 11 17 12 11 14 14 13 8 12 21 25 27 26 26 26 24 24 24 23 21 22 22 22 21 20 21 19 18 17 17 17 16 15 15 15 15 15 15 16 15 14 14 13 13 12 12 11 12 12 12 12 11 11 10 11 11 10 12 12 12 11 10 11 10 10 10 11 12 12 12 11 12 12 13 13 13
5 2 4 4 3 5 5 2 2 1 7 7 7 8 7 9 8 8 10 9 8 12 15 11 11 13 13 12 7 14 23 25 27 28 28 26 24 24 24 23 22 22 23 23 22 21 22 20 19 18 17 17 16 15 15 16 16 16 15 16 16 15 14 14 13 13 12 12 13 12 12 12 11 11 10 10 10 10 11 11 12 11 11 11 9 9 10 11 13 13 13 12 11 12 13 13 13
5 4 4 4 5 7 2 2 1 4 5 3 7 8 8 9 6 8 9 8 7 9 13 11 11 13 12 11 9 13 20 23 27 28 27 25 24 24 23 23 22 23 23 23 22 22 22 21 20 19 18 18 16 15 15 16 16 16 15 15 16 15 14 14 14 13 12 12 12 12 12 11 11 11 10 10 10 10 11 11 11 12 13 13 11 9 10 12 13 12 13 13 11 11 12 12 13
6 5 3 3 6 8 4 2 2 4 3 1 7 9 8 8 4 6 7 8 8 3 8 12 12 13 12 11 10 10 17 24 27 27 26 24 24 23 22 22 22 23 23 22 23 22 21 21 20 20 20 19 18 16 15 15 16 15 14 15 15 14 14 14 13 13 12 12 12 12 12 12 11 11 11 11 10 10 10 11 11 11 12 13 13 12 11 12 12 11 12 11 10 11 11 11 12
8 4 3 5 5 6 5 5 3 1 2 2 7 9 8 9 7 5 7 8 6 7 6 11 10 10 11 12 10 12 20 27 27 27 25 24 24 23 22 22 22 22 22 22 22 21 20 20 20 20 20 19 18 17 16 15 15 14 14 14 15 14 14 13 13 13 12 13 13 13 13 12 11 11 11 11 10 10 10 11 11 11 11 12 13 13 14 13 12 10 10 9 9 10 11 11 11
7 4 5 5 4 3 5 4 4 1 1 5 7 8 7 9 9 6 7 7 8 12 8 10 9 7 11 12 15 20 27 29 27 27 25 24 23 23 22 21 21 20 20 21 21 20 19 19 20 19 19 19 17 17 17 16 15 14 14 13 14 14 14 13 13 13 13 13 13 13 13 12 11 11 10 10 10 10 11 11 11 11 11 11 12 12 13 14 13 12 11 10 11 11 11 11 11
6 6 6 5 3 3 3 2 3 3 2 5 6 7 8 9 8 5 9 11 9 11 8 10 10 8 12 15 22 28 30 29 27 27 26 24 22 22 21 21 21 20 19 19 19 19 19 19 19 19 19 18 16 17 17 16 16 15 15 14 14 14 14 14 13 13 13 13 13 14 14 13 11 10 10 10 10 10 11 10 10 10 10 11 11 11 11 12 13 13 12 12 13 13 13 12 12
7 6 6 5 2 2 4 5 4 6 2 4 7 8 8 9 9 6 9 10 10 11 8 11 10 9 16 21 28 31 30 30 28 27 26 23 22 21 19 20 20 19 19 18 18 18 18 19 18 19 20 17 16 17 17 16 16 16 15 15 14 14 13 13 12 12 13 13 14 13 13 13 12 10 9 9 10 10 10 10 10 10 10 10 10 10 11 11 12 12 12 12 12 12 12 11 11
7 6 7 3 3 6 9 4 7 9 5 6 8 9 8 8 10 8 8 9 11 11 10 11 11 14 20 25 30 31 30 30 28 27 25 22 21 21 19 19 20 19 19 18 18 18 17 18 17 18 18 17 17 16 15 16 17 17 17 16 14 14 13 12 12 12 12 13 14 13 11 12 11 11 10 8 9 9 9 10 9 9 10 10 10 10 10 11 12 11 11 11 9 8 9 9 9
8 7 7 3 1 8 3 5 6 7 6 9 9 8 6 8 9 9 8 9 11 10 10 12 13 16 19 23 27 29 30 29 28 27 25 23 21 22 20 19 20 19 19 18 18 18 17 17 17 17 17 17 16 15 15 16 16 16 17 16 15 15 14 11 11 11 11 11 11 12 13 10 10 11 11 11 10 9 8 9 10 9 9 9 9 8 8 10 10 8 8 8 7 6 8 9 9
7 7 7 2 3 6 3 6 5 6 2 3 7 8 6 8 9 9 10 7 6 6 8 12 15 18 19 21 24 26 27 27 28 27 25 23 22 22 20 20 20 19 19 18 18 18 17 17 17 17 17 17 15 14 15 15 14 13 13 14 14 14 13 11 11 10 9 9 8 10 13 12 12 11 10 12 10 9 9 9 10 9 8 7 8 7 5 6 6 5 6 6 6 6 7 8 8
7 9 10 6 6 3 4 2 4 4 2 3 4 6 6 8 7 8 10 6 2 2 6 12 16 19 21 21 22 23 24 25 26 26 25 24 23 22 21 21 20 20 19 18 18 18 18 17 17 18 17 16 14 15 15 14 14 13 12 12 14 14 12 12 11 10 9 8 7 9 11 12 14 11 8 9 8 8 8 8 9 7 7 5 6 6 5 5 6 5 5 4 5 5 6 6 6
8 9 10 9 9 4 1 1 1 3 2 4 3 5 7 7 8 7 9 6 1 4 9 12 17 19 21 22 21 22 22 23 24 25 25 25 24 23 22 22 21 20 19 18 19 18 19 18 18 18 17 17 15 15 15 14 13 13 12 12 13 13 12 12 10 10 10 8 8 9 8 9 10 10 8 7 7 7 8 9 7 5 7 6 4 5 4 3 5 6 4 3 4 5 6 6 6
11 10 10 8 7 6 4 2 2 3 2 2 2 4 7 7 7 7 12 6 5 10 13 14 18 19 21 21 21 22 22 22 24 26 26 25 24 23 22 22 21 21 19 19 20 19 19 19 18 18 17 18 16 14 14 14 13 12 13 12 12 12 12 11 10 10 10 8 8 8 6 6 7 7 7 6 5 5 6 7 6 4 8 7 4 4 4 4 4 4 4 3 4 5 5 5 5
13 13 12 8 6 7 6 5 5 4 5 3 3 5 7 6 4 3 11 12 8 9 13 17 18 18 19 19 20 21 21 21 23 26 25 23 23 23 22 22 21 20 20 20 20 20 20 19 19 18 17 17 16 14 14 14 13 12 13 12 12 12 11 11 11 11 10 8 8 6 4 5 5 6 5 4 3 3 3 4 3 3 6 5 4 4 3 4 4 4 3 3 4 3 3 5 4
10 14 14 11 10 8 6 8 8 6 6 4 5 8 6 6 5 4 7 9 6 8 13 15 18 18 17 18 19 20 21 22 22 24 24 23 23 23 22 22 21 21 20 20 20 20 20 20 20 18 17 16 15 15 14 14 13 13 13 12 12 12 11 10 11 11 10 9 8 5 3 3 4 5 5 4 4 3 3 3 3 4 5 4 4 5 2 3 4 4 3 3 3 2 3 5 4
5 9 12 14 13 10 8 8 9 8 9 7 7 8 6 6 6 5 6 6 7 10 12 14 16 17 18 17 18 19 19 22 24 24 23 22 22 22 22 21 21 21 21 21 21 20 20 20 20 19 18 16 16 15 14 14 13 14 13 12 12 11 10 11 12 11 10 9 8 6 4 4 4 5 5 4 4 4 3 3 3 3 4 4 4 4 3 3 4 3 3 4 4 2 3 4 3
8 8 8 12 14 13 12 11 10 9 9 9 9 9 6 7 4 3 5 5 8 11 12 13 15 16 17 17 18 17 17 22 25 23 22 22 22 22 22 22 22 22 21 21 21 21 21 21 20 20 18 17 16 15 15 14 13 14 12 12 12 10 10 11 10 10 9 9 9 7 6 4 4 5 4 4 4 4 3 3 3 2 2 4 5 6 3 3 4 3 2 3 3 3 2 3 3
12 11 10 11 13 14 15 14 13 11 9 9 10 10 7 8 7 4 6 7 9 11 12 13 14 14 15 16 16 15 18 23 23 22 24 24 23 23 23 22 23 22 21 21 21 22 22 21 21 20 19 17 17 16 15 14 14 13 12 12 12 10 11 11 9 9 8 9 9 7 7 6 6 5 4 4 4 3 2 3 3 1 2 5 6 5 2 1 2 1 2 2 2 2 2 4 4
12 12 10 10 11 12 15 15 15 15 12 11 11 8 6 7 9 8 9 11 11 11 12 12 12 13 15 15 14 15 19 21 22 24 25 24 22 23 23 22 23 22 21 21 21 22 22 21 21 20 20 19 17 16 15 14 14 13 13 12 12 11 11 11 10 9 8 9 9 8 7 6 6 5 4 3 2 3 3 2 1 1 4 5 3 3 3 2 2 3 3 3 2 2 2 4 5
10 12 9 9 9 10 14 15 16 16 13 14 12 5 6 7 8 12 10 12 13 11 11 12 13 13 14 15 15 16 18 20 24 26 26 25 23 23 23 23 23 23 21 22 23 23 22 21 21 20 20 20 18 17 16 14 14 13 13 12 12 12 11 10 10 10 10 10 9 9 8 7 6 5 4 2 2 3 3 2 0 3 5 3 2 2 3 4 3 3 4 2 3 4 2 3 5
9 10 9 10 9 9 13 16 18 16 13 16 14 6 6 6 9 14 13 13 14 10 9 12 14 15 15 15 16 15 17 21 25 26 26 26 25 23 24 24 24 24 22 23 23 23 23 22 21 20 21 21 18 17 16 14 14 13 13 12 12 12 10 10 10 10 10 10 10 9 8 7 6 5 4 3 3 3 3 3 2 3 3 2 3 2 2 4 3 3 4 4 3 4 3 3 4
9 9 9 10 11 10 10 13 18 17 14 16 15 9 5 5 12 15 15 16 16 13 13 15 14 16 17 15 15 16 16 19 22 24 27 27 25 25 25 25 25 24 23 23 24 24 24 22 21 21 21 21 19 17 16 14 14 13 12 12 12 12 11 10 10 10 10 10 9 10 9 7 6 5 5 4 3 2 3 3 4 4 2 2 2 1 3 5 3 3 4 4 3 2 3 3 4
8 9 10 11 13 12 10 10 15 18 16 15 17 13 6 8 13 16 17 15 15 14 16 15 12 13 15 15 15 16 16 18 18 22 27 27 26 25 25 25 25 24 23 23 24 24 24 23 22 21 21 21 20 18 16 15 14 13 12 12 12 12 11 10 10 10 10 10 9 10 10 8 6 5 5 4 3 2 3 3 4 4 3 2 2 2 4 4 2 3 3 3 2 2 3 3 4
9 10 9 11 13 13 13 11 12 17 18 16 16 14 11 12 11 14 18 17 17 15 12 13 14 14 15 16 15 15 16 17 18 22 28 28 27 26 25 25 26 25 24 24 25 24 23 23 22 21 22 22 20 18 16 15 15 13 13 12 12 12 11 10 10 10 9 9 10 10 10 8 7 6 5 5 3 3 3 3 3 4 3 2 2 3 4 4 2 1 2 2 2 2 3 3 4
9 10 10 12 12 12 14 13 11 17 16 17 16 14 14 14 11 11 15 17 17 12 11 14 15 14 14 14 14 15 16 16 19 25 28 28 27 26 25 26 26 25 24 25 25 25 24 24 23 21 22 22 21 19 17 16 15 14 14 13 13 12 11 9 9 10 9 8 9 10 10 9 8 7 6 5 4 3 2 3 3 2 2 2 1 3 4 5 4 2 2 2 1 1 3 3 3
9 9 10 12 12 12 13 14 14 15 13 15 17 16 14 12 13 16 16 16 14 12 16 18 15 14 14 14 13 15 16 15 19 25 27 28 27 27 26 26 27 26 25 26 26 27 25 25 25 23 23 23 22 21 19 18 17 16 15 15 14 13 12 11 9 9 9 9 9 10 10 9 9 8 7 6 5 3 2 2 3 2 2 2 1 2 4 4 3 2 3 2 1 1 2 3 3
10 9 10 10 11 12 12 13 16 14 10 11 16 17 16 14 14 15 14 16 16 17 19 16 15 16 15 15 15 14 14 14 17 21 25 28 28 28 27 26 29 28 27 27 27 28 27 26 26 24 24 24 22 21 20 19 18 17 16 15 15 14 13 12 11 10 9 10 10 9 10 10 9 9 8 7 6 5 4 3 3 3 2 1 1 0 2 3 1 1 2 1 1 1 1 2 3
12 9 9 9 8 10 10 10 14 13 8 9 15 15 16 17 16 15 17 18 15 19 20 16 16 17 16 16 14 14 14 14 16 19 23 27 29 29 28 27 29 29 28 29 28 28 27 26 26 25 25 24 23 22 21 20 18 17 16 14 14 14 13 12 11 10 9 9 10 10 10 10 10 9 9 8 7 6 5 4 4 4 3 3 2 1 1 1 1 1 1 1 0 1 1 2 2
12 9 8 9 9 9 8 8 13 14 9 9 13 13 13 15 15 17 21 17 12 18 19 15 13 14 16 18 15 14 15 15 16 18 21 25 28 30 29 27 29 30 29 30 29 29 28 27 27 26 25 24 23 22 21 20 18 17 15 14 13 12 12 13 11 11 11 9 10 11 11 10 10 10 9 9 8 7 6 5 4 5 5 4 3 2 2 2 2 2 2 2 1 2 3 2 3
13 14 11 10 11 11 10 9 11 13 13 10 11 11 10 13 15 16 17 18 18 19 17 14 14 14 15 17 15 15 16 16 17 19 20 22 27 29 30 29 29 30 30 31 31 30 28 28 28 27 26 25 23 23 22 21 19 17 15 14 13 10 11 13 12 12 12 11 11 12 12 12 11 10 10 10 9 8 7 6 5 5 5 5 4 4 3 3 3 3 3 3 3 4 4 1 3
11 15 15 14 14 13 12 12 9 9 11 12 12 11 9 12 16 16 15 17 21 18 17 19 18 16 15 15 15 16 17 16 16 18 20 22 26 29 31 30 30 31 31 31 32 31 29 29 29 28 27 26 24 24 24 22 20 20 18 16 16 13 12 13 14 13 13 12 12 11 12 12 12 11 11 10 10 8 8 7 6 6 5 6 6 5 4 3 3 3 3 3 4 4 3 1 1
9 10 14 17 17 15 14 13 10 8 8 10 15 12 9 11 15 17 16 16 20 18 19 20 17 17 16 15 16 16 17 16 15 16 18 21 25 28 30 32 32 32 32 31 31 31 30 30 30 29 27 26 26 25 25 24 22 21 21 19 18 17 15 14 14 13 12 12 12 12 12 13 13 12 11 11 10 9 9 8 8 7 6 6 6 6 5 4 4 4 4 3 3 2 2 1 2
9 8 10 13 15 17 16 13 11 9 9 10 14 14 10 10 12 15 17 17 19 19 18 18 16 17 17 16 16 17 17 16 14 15 17 20 24 28 30 33 32 32 32 32 32 32 32 31 31 30 28 27 27 27 27 26 24 23 22 21 19 18 17 15 14 13 12 11 12 12 12 13 13 13 12 11 11 10 10 9 9 8 7 7 7 7 7 5 4 3 4 3 3 2 3 3 3
10 10 10 9 10 14 16 14 11 9 10 11 13 14 11 10 11 13 17 19 19 20 20 19 18 18 20 19 18 17 17 17 17 18 21 23 26 31 33 33 32 32 32 33 32 32 32 31 32 31 29 28 28 28 29 28 26 24 23 22 20 19 18 16 15 14 13 12 11 12 12 12 13 13 13 12 12 12 11 10 10 9 8 7 7 7 7 6 5 4 4 4 4 4 4 4 3
11 13 12 7 7 9 11 12 11 11 12 11 13 15 11 9 10 12 14 16 17 18 19 19 20 20 20 20 20 19 18 18 17 18 21 24 29 33 34 33 33 32 31 32 32 32 32 32 32 33 31 30 29 30 30 29 27 25 24 24 23 20 18 17 15 15 15 14 12 12 12 12 12 13 14 14 13 12 12 11 11 10 10 9 8 7 7 7 6 6 6 5 5 5 5 5 4
11 13 13 9 8 9 8 9 10 10 12 13 16 18 15 10 9 10 12 13 15 15 16 18 20 21 19 20 21 20 18 17 17 18 20 22 28 33 33 32 33 31 31 31 31 31 33 33 33 34 32 30 30 31 31 30 28 26 25 25 25 23 20 18 17 16 16 16 15 14 14 14 13 13 13 14 14 14 13 13 12 11 11 10 9 8 7 7 7 7 7 7 7 6 5 5 5
11 10 10 9 8 8 8 8 9 10 11 13 16 19 18 13 8 9 12 16 16 13 15 18 21 21 19 19 19 19 18 17 17 17 17 17 22 27 30 31 32 31 31 31 32 32 32 33 33 34 33 31 31 32 32 31 30 28 27 26 26 25 22 21 19 18 17 18 18 17 16 15 15 14 14 14 15 15 15 14 13 12 11 11 10 9 8 8 7 7 7 7 7 7 7 6 6
11 10 9 9 8 8 8 9 9 10 11 12 14 17 16 13 11 12 13 16 17 15 15 17 19 21 20 19 20 17 17 18 16 15 14 14 18 22 26 29 31 31 31 32 33 32 32 33 34 35 35 33 32 32 33 32 31 29 28 27 26 26 24 23 22 20 19 19 19 18 17 16 16 16 16 15 15 15 16 15 14 14 13 12 11 10 9 8 7 7 7 8 8 7 7 7 7
12 11 10 9 8 8 10 9 9 11 11 13 15 15 13 11 12 16 17 15 13 15 17 17 16 19 20 20 21 18 18 19 17 16 16 16 18 20 24 29 31 31 33 34 34 33 32 33 34 35 35 34 33 33 33 33 32 30 29 28 27 26 26 25 23 22 21 20 19 19 19 18 17 18 18 17 16 16 16 16 16 15 14 13 12 12 10 9 9 8 8 8 8 8 8 8 8
13 12 11 11 9 8 9 8 9 10 10 13 17 14 11 10 9 13 19 17 14 13 15 16 16 17 18 19 21 20 20 21 19 19 20 19 20 22 26 29 31 32 33 34 33 33 33 33 35 36 35 35 34 33 33 33 32 31 29 29 27 26 26 25 24 24 23 22 20 20 20 19 18 18 18 18 17 17 16 16 16 16 15 15 14 13 12 11 10 9 9 9 9 9 8 8 8
11 12 11 12 11 9 9 9 10 11 9 10 12 10 9 9 7 9 13 18 19 16 10 12 15 16 17 17 19 20 19 19 20 20 20 20 21 24 27 28 30 32 33 33 33 33 33 33 34 36 35 36 35 33 33 33 32 30 30 29 28 27 26 25 25 24 24 23 22 21 21 21 20 18 18 19 19 19 18 17 17 17 16 16 15 14 13 12 11 11 10 10 10 9 9 9 9
8 11 12 12 13 12 10 11 13 13 12 9 8 10 9 9 9 9 10 14 20 20 14 11 14 17 17 16 17 18 19 19 20 20 19 20 21 24 27 29 30 31 32 34 34 35 35 34 34 36 35 35 35 34 33 32 31 30 30 30 29 28 27 27 26 25 25 24 23 22 21 21 21 19 18 19 20 20 20 19 18 17 17 17 16 16 15 14 13 12 12 11 11 10 9 9 9
11 10 11 12 13 13 10 9 10 11 11 9 10 13 11 9 8 9 12 14 16 20 20 17 15 16 16 15 15 18 19 19 20 21 20 19 19 23 27 29 31 33 34 35 36 36 35 34 35 36 36 36 36 35 33 32 32 30 29 30 30 29 28 28 26 25 25 24 24 23 22 21 21 20 19 19 20 20 20 20 19 17 17 17 17 16 16 15 14 14 13 13 12 11 10 10 10
18 14 10 10 12 12 10 9 9 10 10 9 12 14 11 10 8 9 15 18 16 18 20 21 20 17 15 15 15 18 18 18 18 20 18 17 18 22 26 29 31 33 35 35 36 36 35 34 34 35 37 36 35 34 32 32 32 31 29 30 30 29 28 27 27 25 25 25 25 24 23 22 21 21 20 19 20 21 21 21 20 18 18 17 17 17 16 16 16 15 14 14 13 12 11 11 10
19 17 14 11 10 11 11 9 9 10 10 10 12 12 9 8 9 10 13 16 18 18 17 19 21 20 18 16 15 16 17 15 16 18 18 17 16 20 26 29 31 33 34 35 35 35 35 35 34 34 35 34 34 34 33 33 33 31 29 29 30 29 28 27 27 26 25 25 25 24 23 23 22 21 21 21 21 22 22 21 21 20 19 18 18 18 17 17 17 16 15 14 13 13 13 12 11
14 15 14 12 9 9 11 11 10 10 9 9 10 10 9 8 9 11 10 11 14 17 16 16 18 19 20 20 18 17 16 15 16 17 19 19 17 20 25 27 30 32 32 33 34 35 35 35 34 35 35 35 35 35 34 33 33 32 31 31 31 30 29 28 27 27 26 25 25 25 24 23 23 22 22 22 22 22 22 22 22 21 20 20 19 19 18 18 17 17 16 15 14 14 14 13 12
13 13 14 13 11 11 12 12 12 11 10 9 9 10 7 4 6 10 11 10 11 14 16 14 15 18 18 19 21 20 17 17 17 17 19 20 18 19 22 24 27 29 30 32 33 34 35 35 35 35 35 35 36 35 35 33 33 33 32 33 32 31 30 29 28 28 27 26 25 25 24 23 23 23 22 23 23 22 22 22 22 22 21 21 20 20 19 18 18 18 17 16 15 15 15 14 14
Wind_Direction
160 167 173 200 220 221 225 221 262 232 232 262 263 241 179 89 106 118 125 139 126 128 122 100 95 80 99 109 100 85 73 79 67 102 108 128 135 133 133 132 133 131 128 129 132 132 130 130 131 133 131 129 131 133 136 137 136 131 127 124 121 121 121 116 113 114 113 111 111 111 112 111 109 107 104 102 101 100 98 97 93 87 85 86 83 81 81 84 85 85 87 87 84 85 88 88 88
167 185 190 200 208 212 230 212 255 248 239 270 260 238 105 100 122 121 126 170 184 122 106 98 94 90 111 122 112 88 70 73 84 89 105 128 132 131 133 132 132 129 128 131 133 133 134 135 134 134 132 131 133 132 132 133 132 128 124 123 123 123 122 118 117 117 114 112 112 113 113 111 110 108 105 102 99 98 96 96 94 88 85 83 79 80 82 83 84 87 91 92 88 87 89 87 87
181 201 193 191 208 215 272 226 245 271 250 262 231 232 118 127 130 123 144 192 174 116 101 106 105 87 97 100 99 92 84 86 100 102 116 131 131 135 135 132 131 129 129 131 134 134 137 137 135 134 132 133 132 131 129 129 128 127 125 125 126 124 122 120 119 118 115 114 114 115 114 112 112 109 106 102 98 95 95 96 94 90 86 84 81 82 85 86 89 93 96 98 96 92 91 88 86
194 202 193 208 222 212 260 242 249 284 275 249 186 171 144 132 134 137 149 163 141 118 115 117 97 51 63 83 93 94 97 98 108 112 125 134 132 137 136 132 131 130 130 131 131 131 133 134 133 133 131 132 131 129 128 128 128 127 127 128 129 127 124 122 121 120 117 115 115 115 114 115 114 111 109 104 99 96 96 96 95 92 88 87 84 83 86 88 91 94 94 95 94 92 90 87 84
205 194 204 229 249 229 241 261 262 277 284 271 174 116 133 130 137 140 132 139 132 125 127 117 101 87 71 75 85 96 109 112 118 120 122 130 133 137 136 135 134 132 132 129 128 126 129 130 129 130 129 129 129 129 129 130 130 129 130 132 131 128 125 123 122 120 119 118 117 117 118 120 118 115 110 104 99 98 96 96 97 95 91 89 88 84 84 87 87 89 93 93 92 92 91 90 87
206 189 205 240 284 294 258 257 260 251 249 252 238 142 151 136 128 129 128 134 131 129 127 117 110 110 84 69 71 85 118 123 128 127 124 131 136 138 139 140 137 134 132 129 128 126 129 129 128 129 129 129 130 131 132 132 131 132 134 135 131 127 126 125 124 123 122 120 120 120 121 121 118 115 109 104 101 99 98 98 99 97 93 91 92 87 85 89 90 90 93 93 93 95 93 94 91
203 193 191 228 252 259 256 252 259 250 188 182 225 149 133 124 120 129 136 137 134 127 111 106 110 109 94 86 78 89 121 128 129 128 130 136 139 140 142 141 137 132 130 128 128 128 131 130 130 130 129 131 132 131 130 131 132 134 134 133 131 129 127 126 127 126 122 120 121 122 120 120 116 113 110 107 104 101 100 99 98 98 97 95 96 91 88 91 94 94 94 93 93 93 92 95 92
212 215 219 240 246 231 251 266 261 257 150 141 176 104 113 124 130 136 139 138 140 126 101 99 112 105 87 91 92 105 119 119 124 129 133 137 140 142 141 138 135 132 128 126 126 127 130 130 130 129 130 132 131 130 129 134 136 134 131 131 130 128 126 126 127 125 122 121 122 121 121 121 117 115 111 108 107 104 102 100 98 100 100 98 98 97 93 92 95 97 95 94 95 94 94 95 93
215 225 262 258 260 255 270 280 255 254 124 124 94 104 123 128 131 141 138 133 144 132 117 114 112 107 95 96 102 108 110 114 125 132 136 139 141 142 139 138 136 133 129 126 125 125 128 131 131 131 132 133 132 131 131 135 135 135 133 131 131 128 127 128 129 126 125 126 125 123 122 121 118 114 110 109 107 104 102 100 99 100 102 102 101 100 94 91 94 97 97 95 93 96 97 94 92
208 209 250 269 266 289 287 279 268 263 140 161 122 119 134 135 138 139 125 130 156 137 122 109 97 113 113 104 103 107 115 125 129 134 140 141 143 143 140 140 138 135 131 129 128 127 131 134 134 134 134 134 133 132 134 133 131 135 136 132 130 129 131 132 130 128 129 130 129 125 120 116 114 112 111 110 107 105 104 101 100 101 104 108 108 103 94 90 92 94 96 97 94 97 100 96 92
223 213 233 263 270 267 256 256 263 245 131 134 129 129 142 141 139 128 117 142 178 144 126 113 107 121 116 105 99 112 126 135 136 140 146 145 145 144 141 142 141 137 135 134 132 131 134 137 138 138 137 136 135 134 135 132 130 132 134 133 131 131 132 130 128 129 132 132 129 124 118 114 114 114 112 108 108 110 108 105 106 108 107 108 110 106 99 95 95 92 90 95 97 98 97 95 92
234 235 236 255 272 243 224 160 206 165 97 118 136 141 153 141 142 133 129 158 177 146 125 112 124 131 119 110 110 124 134 142 141 145 147 148 147 143 144 143 142 140 138 137 135 135 137 141 142 141 140 138 137 135 133 131 131 132 134 134 132 133 131 129 128 130 133 132 128 123 119 117 116 115 112 110 110 112 111 111 112 115 110 106 108 100 97 97 95 94 90 92 95 96 94 93 92
231 236 244 257 264 263 261 89 52 69 80 131 137 156 160 131 133 126 136 158 141 129 121 127 141 128 116 111 124 136 139 146 143 145 147 148 147 144 145 143 143 141 140 139 137 140 141 143 144 144 144 140 137 134 132 131 131 133 135 133 132 134 131 131 130 131 135 132 126 122 121 118 116 115 113 110 109 109 109 112 114 114 111 109 107 92 84 83 83 88 91 93 95 97 95 93 95
237 258 267 270 271 285 319 63 10 75 92 110 141 167 151 118 128 121 135 132 95 122 133 138 139 112 117 121 131 147 143 149 146 146 149 147 146 145 146 144 143 142 141 142 141 144 145 145 145 146 146 141 139 137 135 133 133 134 133 131 133 134 133 133 133 135 136 132 129 126 123 119 118 116 112 110 108 109 107 108 108 105 106 108 108 102 91 81 77 79 83 89 95 98 99 97 98
239 279 270 277 289 295 6 40 319 81 96 206 165 158 134 119 133 95 94 110 119 199 153 118 125 110 140 144 143 154 148 152 149 148 150 146 146 145 146 144 144 144 144 145 144 147 147 146 145 146 146 144 144 142 141 139 138 137 135 134 134 137 137 136 136 138 136 134 132 126 123 120 116 112 110 110 110 109 106 104 104 103 104 107 109 112 111 107 104 97 90 92 94 95 95 96 97
240 263 260 271 272 278 50 40 282 156 197 218 167 143 136 116 113 91 115 166 165 175 171 128 138 144 155 150 142 148 149 152 150 151 150 147 147 144 146 146 145 146 146 148 148 149 148 146 146 147 148 149 148 143 143 143 143 142 140 141 139 142 142 142 143 139 137 136 133 128 125 121 114 111 111 111 110 109 107 105 104 106 105 105 107 109 112 116 118 114 108 101 96 93 93 94 94
250 251 269 274 296 358 45 258 234 156 174 177 164 146 142 127 117 117 158 191 162 152 176 137 137 153 146 138 139 147 150 151 152 152 150 150 149 146 149 149 149 148 149 151 150 150 149 149 151 151 151 150 148 145 144 145 147 146 146 147 146 145 144 146 145 140 140 140 136 133 129 125 122 119 116 111 109 109 108 106 103 105 106 106 104 103 103 106 111 112 109 105 102 98 94 93 91
251 246 264 265 30 19 254 249 112 114 153 161 170 157 148 148 138 141 162 177 155 147 154 126 120 124 128 131 140 147 150 151 155 154 152 155 153 150 153 153 153 151 152 153 151 152 150 152 154 152 150 148 148 147 145 148 151 151 152 152 150 148 147 147 147 148 148 145 142 139 134 129 128 128 122 116 112 111 107 104 104 104 103 101 102 100 99 99 103 106 105 109 110 107 105 101 96
245 253 259 270 108 206 238 299 73 105 168 193 174 166 155 145 145 168 170 155 155 150 139 132 119 112 124 135 143 149 151 155 158 157 156 158 156 153 157 157 154 154 155 154 154 154 154 155 156 151 148 148 151 149 147 152 156 158 157 154 155 152 149 151 153 157 155 154 152 148 143 131 132 133 130 132 124 119 112 108 109 107 103 97 95 93 92 93 96 101 103 109 111 117 130 119 108
236 250 263 327 8 231 222 18 28 87 159 186 169 162 150 152 163 171 166 160 161 150 140 142 129 123 130 139 146 151 154 158 159 159 159 160 159 157 159 158 155 157 157 155 155 156 156 157 156 151 150 152 153 151 151 155 160 162 158 155 157 153 152 158 157 158 162 165 157 150 147 137 139 136 133 140 133 129 123 117 116 110 110 107 103 100 96 96 97 102 99 112 124 124 147 135 109
231 241 253 282 286 265 67 48 24 44 62 160 155 153 160 176 178 168 163 171 162 144 157 151 138 137 140 143 148 154 157 159 161 162 162 164 163 160 160 159 157 158 158 157 157 156 158 159 157 154 153 155 155 154 156 158 159 158 156 156 155 152 156 163 158 158 165 168 156 145 146 140 139 135 132 136 136 142 141 133 128 120 119 117 123 117 104 113 115 120 99 112 147 130 139 144 118
245 251 260 271 280 305 69 57 33 19 41 90 155 157 183 183 180 180 149 142 161 174 188 156 143 144 145 149 152 159 162 160 163 163 164 168 167 163 161 160 158 158 160 159 158 158 161 162 159 158 157 158 159 157 158 158 158 156 158 159 154 153 159 162 160 159 160 161 153 144 144 141 142 144 135 130 136 148 148 139 124 119 123 101 112 106 80 110 107 113 110 96 136 126 105 111 106
250 255 255 264 277 300 25 158 75 326 92 130 189 174 196 182 187 189 121 106 165 258 240 166 140 145 148 153 157 164 165 163 165 163 167 172 168 165 163 162 161 160 161 161 160 160 164 165 161 160 161 162 162 159 158 158 158 159 158 159 156 155 158 161 162 158 156 156 151 148 144 142 144 145 140 138 153 153 148 142 124 135 139 104 94 95 63 92 90 93 115 98 101 104 94 91 91
242 258 259 252 261 266 261 220 175 279 279 174 192 185 206 191 197 174 129 146 224 222 209 155 133 144 151 155 161 166 167 168 166 165 171 173 169 167 165 163 161 160 162 162 162 163 166 166 162 163 164 163 161 159 161 158 160 161 157 160 159 157 161 162 160 155 153 152 151 155 152 145 139 138 144 152 162 147 137 139 136 150 131 113 110 102 75 86 85 89 107 115 96 89 96 97 94
235 250 264 268 268 259 249 246 234 247 262 248 197 203 204 188 204 174 146 162 201 187 151 132 134 145 151 155 163 168 169 172 169 167 171 172 169 169 167 165 162 162 163 164 164 164 168 165 163 166 165 164 162 160 162 159 160 161 158 160 158 161 166 159 156 154 152 151 151 159 156 147 141 136 141 143 136 115 103 111 110 97 94 96 99 90 85 89 88 93 91 96 101 96 103 103 100
233 240 252 258 259 261 250 243 242 237 241 237 217 213 195 188 196 191 159 142 148 136 127 138 143 146 154 157 166 170 170 173 171 170 171 173 172 169 170 166 164 165 165 166 166 166 168 166 166 167 166 166 163 162 162 160 160 160 160 159 157 165 165 154 155 155 154 154 152 156 135 121 132 125 122 118 110 102 100 90 81 84 85 87 89 86 74 75 89 103 88 81 95 107 109 111 112
242 238 249 257 256 256 251 240 235 232 234 231 234 224 185 190 214 191 137 119 146 144 142 149 145 154 159 159 168 171 173 175 172 172 172 174 174 172 171 168 166 167 166 168 167 167 168 167 168 168 167 168 165 164 162 160 160 159 160 159 159 164 159 157 160 157 156 154 151 150 122 94 101 108 104 106 110 104 95 89 73 74 90 85 78 81 62 53 69 74 67 67 80 89 100 110 115
256 259 263 259 253 249 245 241 234 229 232 228 240 245 188 155 215 231 123 151 186 156 151 157 155 161 160 163 168 169 175 176 173 173 174 178 177 174 172 171 170 167 167 170 168 167 169 169 168 167 168 169 167 165 161 161 162 160 160 158 161 161 158 162 162 157 153 145 142 144 132 106 94 100 93 93 99 92 88 87 78 77 101 92 80 71 50 44 54 52 56 57 80 92 102 117 112
249 260 268 258 248 241 234 233 232 230 231 219 225 242 220 165 171 187 141 172 193 158 156 165 164 162 163 169 167 169 174 173 176 177 178 179 177 176 175 174 171 168 170 170 169 169 170 170 169 168 169 169 170 167 163 163 161 161 161 159 161 159 159 163 161 154 146 140 143 143 140 122 107 107 97 99 98 89 98 85 79 96 80 79 86 80 81 112 63 54 73 65 92 115 129 128 118
242 244 251 256 250 237 226 223 223 227 226 214 216 225 230 202 171 173 164 171 181 168 165 169 172 170 168 171 169 173 172 172 179 181 181 178 178 180 175 175 172 169 170 170 172 172 171 171 168 170 170 170 173 168 165 164 162 162 163 161 161 160 162 163 160 156 148 149 152 146 144 134 120 119 112 114 103 95 108 90 63 80 73 65 69 80 100 107 64 54 63 68 96 91 111 121 120
234 236 235 243 249 240 222 214 214 220 216 207 215 223 233 228 182 179 180 179 179 173 176 178 177 175 172 172 172 174 172 175 181 181 181 178 180 181 176 177 174 172 171 170 173 174 173 172 170 172 170 171 173 169 167 167 164 164 165 164 162 163 165 164 163 161 157 156 156 151 149 146 134 127 126 115 106 122 134 149 125 69 80 79 70 67 69 74 71 57 41 36 86 86 92 106 111
224 230 227 225 235 245 227 210 207 214 210 199 208 222 209 233 223 186 171 185 184 170 192 194 181 177 176 175 173 174 175 177 181 182 182 180 180 182 181 180 176 174 173 170 172 174 175 172 172 172 169 172 173 169 168 168 167 167 168 165 163 166 166 166 167 165 163 162 160 156 153 153 145 138 137 128 138 152 152 161 137 82 78 89 82 58 67 84 75 36 29 38 70 86 97 99 112
217 225 230 223 220 235 235 208 199 208 211 196 206 228 180 196 233 197 172 189 182 172 195 195 188 183 175 175 176 176 177 178 182 183 183 182 181 183 183 180 178 176 173 171 172 175 176 172 174 174 169 172 172 169 168 167 170 169 168 167 166 169 169 170 170 169 168 165 162 157 158 161 158 152 144 148 176 172 164 165 139 124 133 127 114 78 92 96 65 33 37 46 54 66 94 113 131
210 218 230 234 224 226 231 206 186 199 216 202 202 224 191 178 210 187 174 192 187 185 193 187 191 193 180 179 179 175 178 180 182 183 182 182 183 184 183 180 180 177 173 174 173 175 176 172 175 174 170 171 170 170 168 167 170 168 169 170 169 173 177 176 171 172 170 168 170 163 164 169 166 163 155 161 180 170 174 171 136 143 151 132 160 130 94 94 65 57 52 35 26 39 81 118 131
215 212 220 234 230 226 226 217 188 191 214 215 203 215 208 184 185 174 172 187 195 191 191 188 192 195 187 181 178 176 180 180 181 184 182 181 183 184 182 180 180 179 175 175 173 175 176 172 174 173 171 172 169 168 168 168 169 170 171 170 169 176 184 180 171 175 175 170 169 161 164 174 175 172 168 170 178 177 179 161 124 137 145 134 172 147 113 119 131 102 84 60 32 50 79 107 118
238 228 224 229 230 229 225 227 207 188 205 222 212 218 213 180 165 175 178 191 197 184 191 201 191 190 191 183 179 178 180 182 181 183 183 183 183 183 182 180 181 180 177 175 173 175 175 172 173 173 173 173 169 168 169 171 171 172 174 171 171 176 182 182 176 177 180 174 164 160 168 178 179 179 177 177 184 189 180 161 138 132 157 167 166 139 126 136 152 166 124 85 24 75 101 110 118
269 259 244 234 232 235 224 226 225 199 199 223 218 223 223 190 177 182 183 193 197 196 205 198 182 184 189 185 185 180 182 184 179 182 185 185 183 183 183 181 181 181 178 177 175 176 176 174 174 173 173 173 171 171 173 175 175 174 176 177 175 176 179 180 181 181 181 176 163 164 174 179 181 184 185 182 184 188 181 165 152 163 193 184 158 121 111 118 134 124 108 98 324 118 117 132 125
255 257 260 246 234 240 228 222 232 216 202 226 223 224 227 213 194 180 184 198 200 206 206 193 187 187 179 181 186 184 185 182 179 183 186 186 185 184 183 182 182 181 179 179 178 178 177 175 175 173 173 175 174 174 175 177 179 178 179 181 178 177 179 180 183 187 184 174 166 170 177 181 185 186 191 192 188 188 193 192 174 183 205 197 219 194 95 105 133 142 120 140 193 169 156 135 120
243 240 253 254 238 245 241 231 239 228 205 225 227 226 231 221 197 179 191 201 208 212 202 191 197 187 171 178 182 184 188 181 181 185 186 188 186 185 185 184 183 181 180 180 180 179 178 177 176 174 175 177 176 176 177 179 181 181 181 183 181 178 180 183 183 187 190 179 173 181 184 185 187 190 196 197 194 194 196 202 189 185 199 212 220 216 157 151 180 203 204 229 214 247 231 143 144
240 236 237 245 239 242 242 227 238 241 229 234 235 230 235 229 208 192 191 187 209 222 205 193 203 192 173 172 174 180 188 186 185 187 188 190 188 186 187 185 183 182 181 181 181 180 180 179 177 176 177 178 178 178 178 180 180 180 183 184 187 183 177 182 184 185 193 188 180 185 189 190 191 195 199 197 196 196 196 203 203 192 193 202 205 201 203 190 191 207 212 213 199 268 253 163 157
230 236 237 243 242 241 246 238 234 238 235 237 248 246 234 227 221 211 196 187 202 211 200 195 202 195 171 159 168 184 190 190 187 187 190 191 191 189 187 185 184 184 183 182 183 182 182 180 178 177 179 179 180 179 178 180 178 179 182 182 189 189 175 179 187 187 190 193 190 188 191 195 196 198 201 199 198 196 197 204 208 204 196 200 204 208 213 192 192 209 206 204 199 233 252 157 139
227 227 233 244 254 252 250 255 250 237 229 219 227 246 243 223 222 222 210 203 209 204 196 199 191 180 169 161 174 187 189 190 189 190 193 195 192 189 187 186 185 185 185 184 184 185 183 181 179 178 179 180 181 180 178 178 178 178 179 179 184 186 180 182 190 191 188 192 196 192 191 196 198 199 200 200 199 198 201 205 209 210 205 206 209 215 221 202 205 211 203 213 215 229 259 51 143
238 219 223 235 251 260 255 252 247 240 242 222 215 229 247 231 222 222 215 213 217 210 203 201 182 167 174 178 180 186 187 186 191 195 197 198 194 189 188 187 187 186 184 184 185 187 185 182 179 178 179 181 182 181 179 178 179 180 181 182 183 185 186 187 191 195 192 193 197 195 194 196 199 201 201 202 202 202 204 205 207 212 209 208 211 218 223 212 206 205 203 214 222 226 241 250 217
242 234 231 229 232 245 251 252 247 246 259 249 227 222 237 242 227 220 216 215 218 212 208 207 190 173 177 187 184 184 187 184 189 196 198 202 199 193 190 188 188 187 183 184 186 187 186 182 180 179 178 181 183 182 181 181 181 182 185 188 189 191 194 192 192 198 200 199 199 199 197 197 199 202 204 203 204 204 205 205 206 210 214 211 209 215 222 223 212 195 201 212 219 218 214 239 256
241 245 249 248 238 236 240 247 250 249 253 253 237 225 231 241 234 225 219 217 217 212 206 207 207 192 181 182 179 180 191 189 189 197 199 201 200 196 191 188 188 187 184 184 186 186 185 183 180 180 179 181 182 182 183 184 184 185 187 191 195 198 200 199 197 200 204 204 201 201 201 197 198 202 205 205 205 206 205 205 205 207 213 214 213 217 219 221 219 207 210 215 218 221 214 227 250
238 245 250 262 269 251 238 240 245 246 247 246 239 234 239 240 229 227 223 220 218 213 206 203 207 204 185 175 174 182 195 192 188 202 204 200 199 195 189 186 186 188 186 184 185 185 184 183 181 181 181 181 182 182 183 185 186 187 189 193 197 199 200 202 201 199 201 203 202 201 200 199 200 204 206 206 207 208 207 206 206 208 212 213 216 222 220 217 219 218 223 225 223 224 221 221 229
230 236 244 244 247 250 244 240 240 243 243 240 237 238 245 245 227 224 226 228 223 213 210 203 199 205 196 176 174 182 192 191 188 200 206 203 201 195 188 186 186 187 186 184 185 185 184 183 182 182 182 181 182 182 183 186 187 189 191 194 197 199 199 200 201 198 196 198 199 200 201 200 203 206 207 207 209 209 210 209 208 210 211 213 216 221 223 219 217 218 221 226 229 229 228 227 233
226 227 233 234 230 232 237 233 231 237 240 235 232 235 242 245 231 224 224 228 230 219 214 209 196 201 201 176 173 184 187 189 192 195 200 203 203 196 188 186 185 186 186 184 186 186 184 184 183 183 183 182 182 182 184 186 188 191 193 194 196 197 197 198 200 199 196 196 198 199 201 201 205 208 208 209 210 209 209 209 210 212 211 213 215 217 221 222 221 220 217 222 228 228 232 231 234
217 223 222 226 224 220 225 220 219 232 237 232 228 228 236 243 240 238 233 226 222 215 221 220 198 197 202 179 176 193 188 181 190 194 193 202 205 196 189 185 183 185 186 185 186 186 185 184 183 183 183 183 182 183 185 186 189 192 193 194 196 196 197 198 199 200 198 198 199 199 200 201 204 207 207 209 210 209 207 207 209 211 211 213 215 216 219 222 225 225 222 224 226 227 229 231 233
210 217 214 219 219 216 222 219 222 234 233 227 226 228 232 239 237 234 237 240 230 213 215 224 208 199 203 188 181 198 193 175 182 192 190 200 205 196 188 184 182 185 187 186 186 186 185 184 184 184 184 183 183 183 185 187 189 192 193 194 196 195 197 198 199 202 202 201 201 202 203 204 206 207 208 208 208 209 208 207 208 210 212 212 213 216 217 219 223 226 229 229 229 230 228 230 234
214 216 219 225 226 227 228 220 220 232 237 221 215 223 232 231 229 224 226 233 241 235 213 209 217 210 203 192 185 197 198 179 179 190 188 195 203 196 188 184 183 185 187 186 187 186 185 185 185 185 184 183 184 183 185 187 189 191 192 194 194 195 196 198 201 203 204 204 204 205 207 209 210 210 208 206 204 206 207 207 208 209 211 211 211 214 215 217 221 223 229 231 232 232 229 231 235
213 207 220 226 224 235 247 252 246 240 243 228 211 216 229 232 234 229 226 218 220 237 227 194 213 220 207 197 190 195 201 186 178 185 187 190 200 199 189 185 185 185 186 187 186 186 186 186 185 185 184 183 184 184 184 186 188 189 191 192 193 194 195 197 200 202 204 205 206 207 208 211 214 212 208 205 202 201 204 206 208 209 209 209 210 213 215 217 221 223 225 228 231 231 229 231 234
220 206 217 226 226 234 245 258 263 252 243 238 223 218 214 223 225 211 221 220 210 218 223 202 211 219 209 199 193 194 202 195 179 177 184 187 196 199 191 186 186 184 186 187 186 187 187 186 185 185 185 184 184 184 184 184 186 188 190 191 192 194 194 197 200 201 203 205 206 208 210 211 214 214 209 205 201 199 200 203 207 210 209 209 211 213 215 216 218 223 225 227 230 230 229 231 233
242 221 207 211 224 233 241 248 249 244 242 239 235 229 212 206 211 188 199 216 211 210 213 209 211 217 211 199 195 197 201 199 182 174 179 184 191 198 192 188 187 185 187 187 186 187 187 186 186 185 185 185 185 184 184 183 184 186 189 190 192 194 195 198 201 201 202 204 205 207 209 211 211 212 211 206 200 198 199 200 204 209 209 210 211 212 213 214 216 221 225 227 229 228 229 231 231
240 247 228 210 216 219 224 239 238 233 238 235 233 237 227 210 205 192 196 204 209 210 209 211 211 210 211 205 200 200 201 201 188 176 179 183 191 199 193 189 190 187 187 188 187 186 187 186 186 186 187 187 185 185 184 183 184 187 189 190 191 193 196 198 200 201 201 203 205 205 208 210 208 208 209 205 198 197 198 199 201 205 207 208 210 210 210 212 215 219 223 226 226 225 228 230 229
230 245 250 236 228 221 215 224 237 237 239 235 229 230 232 225 215 211 204 198 204 210 206 211 213 208 208 210 208 205 202 202 194 180 176 177 188 203 201 193 191 189 188 188 187 186 187 187 187 187 188 187 186 186 184 184 185 187 188 189 191 193 195 197 198 199 200 202 204 205 206 208 207 206 205 203 200 199 198 198 199 202 205 206 207 209 209 209 213 218 222 226 226 223 224 227 230
221 228 239 236 232 232 225 220 224 234 240 239 235 229 225 223 214 213 208 189 195 209 208 208 214 213 211 211 214 212 202 201 201 186 176 175 182 198 206 202 195 190 189 189 188 187 187 187 187 187 186 186 188 188 186 185 186 187 187 188 190 191 193 195 197 198 199 201 202 205 206 206 206 204 204 203 201 201 199 198 199 201 203 205 205 207 208 209 212 216 220 225 226 223 223 226 229
233 226 228 232 228 225 228 222 214 221 234 239 244 241 234 221 202 205 212 203 189 199 206 206 211 218 218 212 211 211 202 198 202 192 179 178 181 186 199 209 203 192 188 190 190 189 189 188 187 187 186 187 189 189 188 186 185 186 187 188 189 190 191 194 196 197 199 200 201 203 205 205 205 203 202 203 202 203 202 199 199 200 201 203 204 205 207 208 210 214 217 221 224 223 222 224 228
Height
779 780 780 780 778 781 781 782 798 791 785 798 792 791 785 766 767 772 771 767 763 754 741 742 743 746 758 765 770 772 774 782 786 788 798 794 789 796 797 800 802 803 806 808 810 812 813 815 816 818 819 820 821 823 824 825 826 827 827 829 829 831 831 832 833 833 834 835 836 836 837 837 838 839 839 839 839 840 840 840 841 841 841 841 841 841 840 840 840 841 841 842 843 843 842 842 842
780 780 778 779 777 782 782 780 799 794 791 805 795 787 781 771 772 773 772 770 764 748 738 744 745 747 753 754 756 768 775 774 774 777 783 785 790 796 797 801 802 804 807 808 811 813 814 816 817 819 820 821 822 823 824 825 826 827 828 829 830 831 832 833 834 834 835 836 837 837 838 838 839 839 840 840 840 840 841 841 841 842 842 842 842 842 842 841 842 842 842 842 843 844 843 843 843
779 778 775 779 777 778 782 784 796 797 803 810 797 783 777 779 774 769 768 765 754 740 744 747 749 751 752 761 761 771 781 774 771 774 781 787 790 795 798 800 802 805 807 809 812 813 815 816 818 820 820 822 823 824 825 826 827 828 829 830 832 832 833 834 835 836 836 837 838 838 839 839 840 840 841 841 841 842 842 842 842 842 843 843 843 843 843 842 842 842 842 842 843 845 845 844 844
778 777 775 778 779 780 788 793 789 793 806 802 791 781 773 777 770 764 761 755 746 741 749 750 757 756 755 772 766 770 783 777 774 775 781 788 790 795 798 800 803 805 807 810 812 814 816 817 819 820 822 823 824 825 825 827 828 829 830 831 833 833 834 835 836 837 837 838 839 839 840 840 841 841 842 842 842 842 843 843 843 843 844 845 845 844 844 844 844 844 843 844 845 846 846 846 846
777 777 776 776 783 785 791 793 783 792 804 790 785 780 768 767 764 758 752 747 743 744 749 750 764 759 753 765 764 774 783 777 777 776 780 788 792 796 798 801 803 804 808 810 812 815 816 818 819 821 823 823 824 826 826 828 829 830 831 832 834 834 835 836 837 837 838 839 840 840 841 841 841 842 842 843 843 843 844 844 844 845 845 846 846 846 845 845 845 845 846 846 846 846 847 847 847
775 776 776 776 782 783 790 794 789 794 792 782 781 776 765 758 754 752 748 745 741 742 744 749 761 761 763 765 763 772 776 776 778 777 782 788 793 797 799 801 802 805 808 811 813 815 817 819 820 822 823 824 826 826 828 829 830 831 832 833 834 835 836 837 838 838 839 840 841 841 841 842 842 843 843 844 844 844 845 845 845 845 847 848 848 847 846 846 846 847 847 847 847 847 848 848 848
775 776 777 782 785 783 792 791 790 792 779 774 775 766 758 751 747 749 750 749 747 743 745 750 752 762 774 769 769 771 769 773 774 779 784 788 794 796 799 801 803 805 808 812 815 816 818 819 820 823 823 825 826 827 829 830 831 832 833 834 835 836 837 838 838 839 840 841 842 842 842 843 843 843 844 845 845 846 846 846 846 846 848 849 849 849 848 847 848 848 848 848 848 849 849 849 849
774 776 777 787 793 786 789 786 785 783 769 764 764 757 751 748 747 750 753 753 753 750 753 754 750 768 777 769 777 775 769 774 775 782 786 789 794 796 799 801 803 806 809 812 814 817 818 820 821 823 824 826 827 828 830 830 832 833 834 835 836 837 838 839 840 840 841 842 843 843 843 843 844 844 845 845 846 846 847 847 847 847 848 849 850 849 849 849 848 849 849 849 849 850 850 850 850
772 778 780 787 792 787 787 786 782 775 767 761 757 755 749 746 747 749 754 755 750 750 760 756 752 773 780 774 780 774 772 778 780 785 788 791 794 796 799 801 804 806 809 812 814 817 818 821 822 824 825 827 828 830 831 832 833 834 835 836 837 838 839 840 841 842 842 843 844 844 844 844 844 845 845 846 847 847 848 848 848 849 849 850 850 850 850 850 850 850 850 850 850 851 851 851 850
775 780 785 790 788 792 797 788 779 773 770 765 756 754 750 746 748 750 754 758 750 749 759 755 756 772 779 780 781 775 778 781 783 788 790 792 794 796 800 802 805 806 809 812 815 817 820 822 823 825 827 828 830 831 832 833 834 835 836 837 838 839 840 841 841 842 843 844 844 844 844 844 845 845 846 847 847 848 849 850 850 850 850 850 851 851 851 851 851 851 851 851 851 852 852 852 851
781 780 784 796 795 802 803 790 782 771 764 764 758 753 748 745 751 754 756 761 751 748 756 757 766 771 774 783 781 776 780 783 785 789 791 793 795 797 801 804 806 808 811 813 817 819 821 824 825 827 828 830 831 833 834 834 836 837 838 839 839 840 840 841 842 843 844 845 845 845 845 845 846 846 847 847 848 849 850 851 851 851 850 850 851 851 851 851 851 850 851 851 852 852 852 853 852
786 787 787 799 801 798 789 784 783 771 765 766 762 752 743 744 754 760 762 764 754 749 754 760 766 767 776 787 782 776 780 783 786 789 792 794 796 799 802 804 806 809 812 814 818 820 823 825 827 829 830 831 832 834 835 835 837 837 839 839 840 841 841 842 843 844 845 846 845 846 846 846 847 847 848 848 849 849 850 852 853 853 851 851 851 851 850 851 851 851 851 851 852 852 853 853 853
784 786 789 795 790 780 769 773 775 772 775 765 760 750 739 747 755 758 761 760 755 756 759 759 756 761 778 786 781 778 780 783 786 789 792 794 796 799 802 804 807 810 813 816 818 821 824 826 828 830 830 832 833 835 836 837 838 838 840 840 841 841 842 843 843 845 846 846 847 847 847 847 848 848 849 849 850 850 851 852 853 853 853 853 852 851 850 849 850 851 852 852 853 854 854 854 854
776 773 781 790 782 771 763 772 774 773 779 763 754 746 738 750 752 752 760 763 763 761 757 751 749 764 780 783 785 781 780 783 785 790 791 794 797 799 802 804 808 810 813 816 819 822 824 826 828 830 831 833 834 835 837 837 838 839 840 841 842 842 843 844 844 846 847 847 848 848 848 848 849 849 850 850 851 851 852 853 853 854 854 855 855 853 852 851 851 851 851 852 854 855 855 855 855
769 767 778 788 784 777 768 776 777 773 779 767 750 741 741 747 746 753 763 769 769 756 750 749 750 768 778 780 787 780 778 783 785 790 791 795 797 800 803 805 808 811 814 816 819 822 824 826 828 830 831 833 834 835 837 838 839 840 841 842 842 843 844 844 845 846 847 848 848 849 850 850 850 850 851 851 852 852 853 853 854 854 855 856 856 856 856 856 855 853 853 853 854 855 855 855 855
758 764 778 786 783 779 775 780 779 778 779 765 745 739 747 747 746 758 761 761 762 749 749 755 754 763 768 769 776 773 776 782 785 790 792 795 798 801 804 805 809 811 814 817 819 822 824 826 828 830 831 833 834 836 837 838 840 840 841 842 843 844 845 845 846 847 848 849 849 850 851 851 851 852 852 852 853 853 853 854 854 855 855 856 856 857 857 857 857 857 856 855 855 854 855 855 856
753 763 777 783 782 780 783 783 777 776 771 758 746 742 752 753 747 752 750 749 752 750 749 750 750 753 758 761 767 771 777 782 785 789 791 796 798 801 804 806 809 811 815 817 819 822 824 826 828 829 831 833 834 835 837 838 840 841 842 842 843 844 845 846 846 847 848 849 850 851 850 851 852 853 853 853 854 854 854 855 855 855 856 856 856 857 857 858 858 858 857 856 856 856 856 857 857
759 769 776 779 786 787 783 773 761 765 766 757 750 745 750 754 751 747 749 751 750 753 751 747 749 749 753 760 766 771 777 781 785 788 791 795 797 800 803 805 808 811 814 816 819 821 824 826 828 829 830 832 834 836 837 838 840 841 842 843 844 845 845 846 847 848 849 849 851 851 850 851 852 853 854 854 854 855 855 855 856 856 856 856 857 857 857 857 858 858 858 858 857 857 858 858 859
763 768 769 768 779 779 764 750 744 757 766 757 749 743 746 750 750 746 751 757 752 757 757 752 756 756 756 762 768 773 776 781 784 787 791 794 796 800 803 805 807 810 813 816 819 821 824 826 828 829 830 832 834 836 837 838 839 840 842 843 844 845 846 846 847 848 849 850 852 852 851 851 853 854 854 855 855 855 856 856 857 857 857 857 857 857 857 857 857 858 858 858 858 858 859 859 859
761 763 769 766 766 760 745 739 738 743 750 752 746 740 745 746 743 744 752 757 753 758 759 757 765 765 763 764 768 773 776 780 783 787 791 794 796 799 802 804 806 810 812 815 818 821 824 826 828 829 831 832 834 835 837 838 839 841 842 843 844 845 846 846 847 848 849 849 851 852 852 851 853 854 854 855 856 856 856 856 857 857 857 857 857 857 857 857 857 858 858 858 858 858 859 859 859
756 757 765 760 753 750 741 738 738 735 736 742 739 741 750 743 736 742 753 762 762 760 755 754 763 765 766 766 768 773 775 778 782 787 790 793 795 798 801 803 807 809 812 815 818 821 824 826 828 829 831 832 834 835 837 838 839 840 841 843 844 845 846 847 847 848 848 849 849 851 851 851 853 854 854 855 856 856 856 857 857 857 857 857 857 857 857 858 857 858 858 859 858 858 857 857 858
755 753 750 746 744 748 743 736 738 737 735 739 739 746 751 740 736 740 753 769 769 762 752 748 753 759 764 766 769 773 774 778 781 785 790 793 794 796 800 803 806 809 812 815 817 821 824 826 827 829 831 832 834 835 837 838 838 840 841 842 844 845 846 847 847 847 848 849 849 850 851 852 853 854 854 854 855 855 856 857 857 857 857 857 857 856 856 857 857 858 858 857 857 857 857 857 858
758 753 742 741 740 744 743 736 739 737 737 745 744 743 740 740 743 739 752 765 759 757 751 744 749 755 761 764 769 774 774 777 779 784 789 791 792 794 798 802 805 808 811 814 817 821 823 825 827 829 831 832 834 835 837 838 839 840 841 842 843 845 846 846 847 847 848 849 849 850 851 851 852 853 854 854 854 855 857 858 857 856 857 858 857 855 856 856 857 858 858 857 857 857 857 857 858
758 756 743 739 738 740 739 735 739 737 739 741 738 737 737 744 745 738 754 760 751 755 750 742 748 754 760 765 769 773 775 776 778 784 788 789 791 794 797 801 804 807 811 814 816 820 823 825 827 829 830 832 833 835 836 837 839 840 841 842 843 844 846 846 847 847 848 849 850 851 851 851 851 852 853 854 854 855 857 857 856 856 857 858 857 856 856 856 858 858 858 858 857 857 857 858 858
755 756 746 739 738 737 735 735 737 738 738 734 735 741 740 740 741 740 753 757 750 747 743 744 751 756 761 766 770 773 776 777 778 782 786 788 791 794 797 800 803 807 810 813 816 819 822 824 826 828 830 832 833 834 836 838 839 840 841 842 843 845 845 846 847 847 848 849 850 850 851 851 851 852 853 853 854 854 855 855 855 855 856 857 857 857 857 857 858 857 858 858 857 857 857 858 858
750 750 746 741 741 736 734 737 737 738 737 733 739 744 739 736 741 747 749 750 749 743 746 750 753 761 764 766 769 771 775 777 778 781 785 788 790 793 795 798 802 806 810 812 815 818 820 823 826 828 830 832 833 834 836 838 839 840 841 842 843 845 845 846 847 847 848 849 850 850 850 851 851 851 852 853 853 854 854 855 855 855 856 856 857 857 857 857 857 857 857 857 857 857 858 858 858
741 743 744 741 741 736 735 738 736 737 736 734 742 744 741 739 744 754 749 745 748 749 753 752 755 763 764 766 768 770 774 775 777 781 784 787 789 792 794 798 802 805 809 812 814 817 820 822 825 827 830 831 833 835 836 838 839 840 841 842 844 845 845 846 846 847 848 849 850 850 851 851 851 852 853 853 854 854 854 854 855 855 855 856 857 857 858 857 857 857 857 858 858 857 858 858 859
740 743 746 744 741 738 736 739 737 737 738 734 738 741 741 746 753 756 750 747 749 753 758 756 758 762 762 766 767 769 773 775 777 780 783 786 787 790 793 796 800 804 808 810 813 816 819 821 824 827 829 831 833 835 836 838 839 840 841 842 844 845 845 846 846 847 848 849 850 851 852 852 852 853 853 854 854 854 854 855 855 855 856 856 857 858 858 858 858 858 857 858 858 857 858 858 859
744 744 754 751 743 742 738 738 736 737 740 731 736 751 753 756 759 753 749 749 748 752 760 759 759 761 763 765 765 768 771 774 778 779 781 784 786 789 792 795 799 803 806 809 812 815 818 820 823 826 828 831 833 834 836 837 839 840 841 842 844 845 846 846 847 847 848 849 850 851 852 852 853 854 854 854 855 855 855 855 856 856 857 856 857 858 858 858 858 859 859 858 858 858 857 858 859
748 747 755 756 751 748 735 732 734 736 737 726 737 767 769 756 753 749 748 750 751 757 761 762 762 761 762 764 765 767 768 772 775 777 780 782 786 788 790 795 797 801 805 808 811 813 817 819 822 825 828 830 832 834 836 837 838 839 841 842 843 845 845 847 847 848 849 850 851 851 852 853 853 854 855 855 855 855 856 856 857 857 858 857 857 858 858 857 857 859 859 858 858 858 857 858 860
751 752 754 757 761 751 729 725 733 737 732 721 738 773 775 757 750 749 747 748 753 762 763 763 764 762 761 762 765 766 766 769 772 774 777 780 785 787 790 794 796 800 803 806 810 812 815 817 821 824 826 830 831 833 835 837 838 839 841 842 843 845 845 846 847 848 849 850 851 852 853 853 854 855 855 856 856 856 856 856 857 858 858 857 858 859 859 858 858 859 860 859 859 858 858 858 859
750 759 761 756 758 749 727 719 726 735 730 720 740 771 772 758 750 745 746 751 754 764 770 765 764 762 761 761 763 766 765 766 769 772 775 779 783 785 789 792 794 798 801 805 809 811 814 816 820 822 825 829 831 833 835 836 838 839 841 842 843 845 845 847 847 848 849 850 851 852 853 853 854 855 856 857 857 856 856 857 857 858 859 858 858 859 859 859 859 860 860 860 859 859 859 859 860
750 756 761 752 751 750 734 718 714 724 728 725 738 757 762 758 750 742 744 749 754 765 771 767 763 760 759 761 761 763 764 764 767 769 772 777 781 784 787 790 793 797 800 804 807 810 813 816 819 821 824 828 830 832 834 836 838 839 840 842 843 844 846 846 847 848 849 850 850 851 853 854 855 855 856 857 857 857 857 857 857 859 859 859 860 860 860 860 860 860 860 860 860 859 859 860 860
752 751 754 746 742 745 740 726 713 717 727 731 736 743 750 752 745 741 744 746 751 760 762 762 765 762 758 758 758 760 762 764 764 766 770 774 778 782 785 788 792 795 799 803 806 810 812 815 818 820 823 827 829 832 834 836 837 839 840 841 843 844 845 846 847 848 848 850 850 851 852 854 855 855 857 858 858 858 857 857 858 859 860 860 861 861 861 861 860 861 861 861 861 860 860 860 860
750 749 751 747 738 737 738 729 716 717 727 732 736 741 742 742 739 739 741 744 750 754 757 762 765 764 760 755 756 758 759 761 762 763 767 772 776 780 783 787 791 794 798 801 805 809 811 814 817 820 823 825 828 831 833 835 837 839 840 841 843 844 845 845 846 847 848 849 850 851 852 854 855 855 856 857 857 858 858 857 858 858 860 860 861 861 861 861 861 861 861 861 861 861 861 860 860
740 739 741 745 740 734 729 721 710 712 729 733 734 740 737 737 739 739 740 741 744 753 762 764 760 759 757 754 754 755 758 758 758 761 766 770 774 778 782 785 789 793 796 800 804 807 810 813 816 819 822 824 827 830 832 834 836 838 839 840 842 843 844 845 846 847 847 849 850 851 852 853 854 855 856 857 857 858 858 858 858 859 860 860 861 862 862 861 862 861 861 861 861 861 861 861 861
736 737 737 736 737 733 722 717 707 702 725 733 728 735 734 736 741 737 739 740 742 757 765 755 752 757 755 753 753 753 756 755 755 760 765 768 772 776 780 783 787 791 795 799 802 805 808 811 814 817 820 823 825 827 830 832 834 836 838 839 841 842 844 845 846 846 847 848 850 851 852 853 854 855 855 856 857 858 858 858 858 859 859 859 861 862 861 861 862 862 861 861 861 861 861 861 861
741 744 742 736 735 731 716 715 709 697 720 733 724 732 735 735 739 732 733 742 745 755 758 748 748 755 751 751 754 753 754 754 755 760 763 767 771 774 778 781 784 788 792 797 800 803 806 809 812 815 818 821 823 826 828 831 833 835 836 837 839 841 843 844 845 846 847 848 849 851 852 853 854 855 856 856 857 858 858 859 859 859 859 859 861 861 861 861 861 861 861 861 861 861 862 861 862
744 745 747 744 734 729 720 715 710 701 718 733 726 732 733 725 729 734 735 737 738 739 742 744 748 751 749 749 753 754 755 755 756 759 761 765 768 772 776 778 782 786 790 794 798 801 804 807 810 813 816 819 821 824 826 829 831 833 835 837 838 839 841 843 845 846 847 847 849 851 852 853 854 854 855 856 857 857 858 859 859 859 859 859 860 860 860 861 861 861 861 862 862 862 862 862 862
747 745 749 748 734 734 735 724 717 708 713 725 726 730 729 718 720 731 730 730 736 733 727 731 738 744 746 745 748 753 756 757 757 758 760 763 766 769 773 775 779 783 787 791 795 799 802 804 808 811 814 817 820 823 825 828 830 833 835 836 837 838 840 842 844 845 846 847 848 850 851 852 853 854 855 856 857 857 858 858 859 859 859 860 860 860 860 861 861 861 861 862 863 863 862 861 862
747 743 745 746 734 733 734 724 719 716 714 719 728 737 732 721 723 726 721 725 736 732 724 728 734 736 737 739 745 750 754 756 755 757 759 760 763 765 769 773 776 779 783 787 791 795 798 802 805 808 812 815 818 821 824 827 829 832 834 836 837 838 839 841 843 844 845 847 848 849 850 852 852 854 854 855 856 857 858 858 859 859 859 860 860 860 860 860 861 861 861 862 862 863 861 861 861
747 741 739 740 735 732 730 726 726 735 735 724 732 756 746 721 722 723 715 719 725 722 725 732 734 732 732 739 746 748 751 751 750 754 757 758 760 763 766 769 772 775 779 783 788 792 795 799 802 806 809 813 816 819 822 825 827 830 832 834 836 837 839 840 841 843 844 846 847 848 850 851 852 853 854 855 856 856 857 858 858 859 859 859 859 860 860 860 861 861 861 861 862 862 862 861 861
750 736 730 734 736 736 734 732 736 747 746 723 722 752 754 728 720 716 710 716 717 715 719 722 727 730 731 736 742 744 746 747 748 752 756 757 758 759 762 765 767 770 775 780 785 789 792 796 799 803 807 810 814 817 820 822 825 828 830 832 834 835 837 838 840 842 843 844 846 847 849 850 851 852 853 854 855 856 857 857 858 858 859 859 859 860 860 860 860 861 861 861 861 862 862 862 862
749 728 724 732 736 741 740 737 741 741 737 726 716 730 748 740 721 708 706 715 716 714 715 715 719 726 730 732 736 739 741 744 748 753 756 757 756 755 757 760 763 766 771 776 780 785 789 793 796 800 804 807 811 814 817 820 822 825 828 830 832 834 835 837 840 841 842 843 845 846 847 849 850 851 853 854 854 855 856 857 858 858 859 859 859 860 860 860 860 860 861 861 861 861 862 862 862
740 725 725 728 731 738 738 739 742 736 739 745 727 720 743 746 721 704 704 713 718 715 714 715 714 718 725 730 733 736 739 740 744 749 752 752 750 751 752 755 760 763 766 771 775 781 785 789 793 797 800 804 808 811 814 817 820 822 825 828 830 832 834 836 838 840 841 842 844 845 846 847 849 850 852 853 854 855 855 856 857 857 858 858 859 859 859 860 860 860 860 861 861 861 862 862 862
732 726 727 729 733 735 737 741 741 740 750 755 736 724 741 743 721 710 710 712 715 711 707 709 709 710 716 724 730 735 737 737 740 744 745 745 745 746 748 751 756 759 762 767 772 777 781 786 790 793 797 801 804 808 811 814 817 820 823 825 828 830 832 835 836 838 840 842 843 844 845 847 848 849 850 851 853 854 854 855 856 857 857 857 858 858 859 859 859 860 860 860 861 861 861 862 862
727 731 735 737 740 739 740 739 739 751 759 750 735 726 734 741 726 712 710 706 701 701 702 702 703 705 708 716 725 731 734 733 735 740 741 742 744 743 744 747 751 755 759 764 768 772 777 781 785 790 793 797 801 804 807 811 814 817 820 822 825 828 831 833 835 836 838 840 842 843 844 846 847 848 849 850 852 853 854 854 855 856 856 857 857 858 858 859 859 859 860 860 860 861 861 861 861
730 737 741 748 749 746 750 747 746 764 764 742 729 724 730 742 729 707 700 695 688 691 696 696 699 703 703 709 718 723 726 727 730 737 739 742 745 742 741 743 747 752 755 759 764 768 773 777 781 786 789 793 797 800 804 807 811 814 816 819 822 825 828 831 833 834 836 838 840 841 843 844 845 846 848 849 850 851 852 853 854 855 855 856 856 857 857 858 858 859 859 859 860 860 861 861 861
735 740 745 758 763 762 769 764 757 762 754 732 723 725 731 733 717 700 694 688 683 684 688 687 691 698 699 704 713 714 715 721 727 732 737 742 743 738 735 738 743 747 751 754 759 763 768 773 777 781 785 788 792 796 800 803 807 810 813 816 819 822 825 828 830 832 834 836 838 839 841 842 843 844 845 847 848 849 851 852 853 854 854 855 855 856 857 857 857 858 858 859 859 860 860 860 861
738 741 746 760 767 774 780 770 760 756 742 724 718 723 732 727 708 696 691 684 677 676 679 679 681 688 692 696 705 708 708 716 725 728 733 739 738 733 730 733 738 742 746 750 755 759 764 768 773 777 780 784 788 792 796 799 803 806 809 813 816 819 822 825 827 830 832 834 835 837 838 839 841 842 843 844 846 848 849 850 851 852 853 854 854 855 856 856 857 857 858 858 858 859 859 860 860
732 730 736 748 751 760 766 757 754 752 736 722 720 726 731 725 705 687 682 681 676 672 671 673 677 679 682 687 696 703 702 708 719 722 725 730 730 728 726 728 733 737 742 746 750 755 759 764 768 772 776 780 784 788 791 795 799 802 806 809 813 815 818 821 824 826 829 831 832 834 836 837 838 839 840 842 844 845 847 848 849 850 852 852 853 854 855 855 856 856 857 857 858 858 859 859 859
725 720 733 741 733 738 744 736 730 730 730 723 718 719 713 702 689 677 676 678 677 676 671 673 681 678 678 683 690 696 697 701 711 715 716 720 723 723 722 724 729 733 737 742 746 751 755 759 764 768 772 776 780 783 787 791 795 799 802 806 809 812 815 818 821 823 825 828 830 831 833 834 835 837 838 840 841 843 845 846 848 849 850 851 852 853 854 855 855 856 856 856 857 857 858 858 859
721 721 733 729 716 724 738 738 722 719 732 724 709 710 704 696 692 680 679 681 678 680 678 679 683 678 677 682 684 689 692 693 700 706 710 713 717 719 719 721 724 728 733 737 741 746 750 755 759 764 769 772 776 779 783 787 791 795 799 802 805 808 811 814 817 819 822 824 826 828 830 831 833 834 836 837 839 840 842 844 846 847 848 849 850 851 852 853 854 855 855 855 856 856 857 857 858
721 722 721 715 715 721 731 744 739 734 742 727 707 707 707 711 709 690 686 690 683 681 681 681 682 680 678 679 680 683 684 685 690 697 703 707 713 715 714 716 720 723 728 732 737 742 746 751 755 759 764 767 771 775 779 783 787 791 795 798 801 804 807 810 813 816 819 821 823 825 827 828 830 832 833 834 836 838 839 841 843 845 846 848 849 850 851 852 853 853 854 854 855 855 856 856 856
717 712 703 710 730 736 735 745 748 746 749 735 716 708 702 705 704 692 691 694 687 682 681 681 682 681 680 678 678 679 679 680 683 690 698 703 710 714 710 712 716 719 724 728 733 738 742 747 751 755 760 763 767 772 775 779 783 787 791 794 797 801 804 807 810 812 815 817 819 821 823 825 827 829 830 832 834 835 837 839 840 842 844 845 847 848 849 850 851 852 852 853 853 854 855 855 855
713 711 706 706 717 725 729 734 736 739 744 737 725 718 707 693 684 682 685 684 682 682 680 680 679 677 678 678 676 676 677 678 679 684 693 699 706 712 709 709 711 715 720 724 729 734 738 743 747 752 756 761 765 768 771 775 778 782 786 790 794 797 800 803 806 809 811 813 816 818 820 822 824 826 828 830 831 832 834 835 837 839 841 843 845 846 847 848 849 850 851 851 852 852 853 853 854
720 721 720 715 712 713 717 718 719 727 736 735 730 724 706 679 666 671 675 672 675 677 676 677 674 671 672 673 673 673 673 675 676 678 687 693 699 707 710 710 709 712 717 721 725 730 733 738 742 747 752 756 760 763 767 770 773 778 781 785 789 793 796 800 803 806 808 810 813 815 817 819 821 823 825 827 829 830 831 832 834 836 838 840 842 843 845 846 847 848 849 850 850 851 851 852 852
718 718 716 717 717 717 725 727 715 713 724 726 726 725 699 664 653 660 665 666 668 668 670 672 670 668 667 665 667 668 669 672 673 673 680 688 692 699 706 710 709 710 714 718 721 725 729 733 737 742 746 750 754 758 762 765 769 773 776 780 785 788 792 796 799 802 804 806 809 811 814 816 817 820 822 824 826 827 829 830 831 833 835 837 839 840 842 844 845 846 847 848 848 849 849 850 851